period_start,C,m1,H,J0,J1,J2,J3,J4,J5,JA,JB,JC,JD,JJ,JK,JN,#
2013-11-29 00:00:13,0.23,4.26,0.00,23.80,24.95,28.40,5.77,30.08,999.08,2049.68,2209.14,2301.84,2459.12,350.10,317.61,26.22,0000 0000 0000 0000 000000
2013-11-29 00:01:14,0.22,4.26,0.00,23.83,24.95,28.38,5.92,30.21,999.09,2049.57,2209.05,2301.42,2459.04,350.48,317.93,26.23,0000 0000 0000 0000 000000
2013-11-29 00:02:14,0.08,4.26,0.00,23.77,24.95,28.36,5.92,30.08,999.10,2049.55,2209.01,2301.17,2458.99,350.63,318.12,26.23,0000 0000 0000 0000 000000
2013-11-29 00:03:14,0.08,4.26,0.00,23.75,24.95,28.36,5.86,30.25,999.09,2049.63,2208.84,2301.06,2458.96,350.80,317.91,26.24,0000 0000 0000 0000 000000
2013-11-29 00:04:15,0.17,4.26,0.00,23.76,24.95,28.39,5.91,30.25,999.10,2049.77,2208.41,2301.02,2458.72,350.37,317.84,26.24,0000 0000 0000 0000 000000
2013-11-29 00:05:15,0.32,4.26,0.00,23.74,24.95,28.36,5.84,30.29,999.09,2049.80,2208.15,2301.00,2458.34,350.01,317.27,26.25,0000 0000 0000 0000 000000
2013-11-29 00:06:15,0.17,4.27,0.00,23.81,24.95,28.39,5.79,30.17,999.14,2049.81,2208.04,2300.95,2458.13,350.14,317.50,26.25,0000 0000 0000 0000 000000
2013-11-29 00:07:15,0.08,4.27,0.00,23.86,24.95,28.37,5.83,30.13,999.13,2049.74,2207.92,2300.62,2458.05,349.88,318.12,26.26,0000 0000 0000 0000 000000
2013-11-29 00:08:15,0.12,4.27,0.00,23.84,24.95,28.35,5.82,29.96,999.15,2049.78,2207.63,2300.26,2458.01,349.59,317.27,26.27,0000 0000 0000 0000 000000
2013-11-29 00:09:16,0.26,4.27,0.00,23.80,24.95,28.37,5.72,30.21,999.20,2049.78,2207.25,2300.10,2457.93,349.08,316.96,26.27,0000 0000 0000 0000 000000
2013-11-29 00:10:16,0.13,4.27,0.00,23.81,24.95,28.37,5.85,30.17,999.17,2049.75,2207.09,2300.03,2457.63,350.03,317.82,26.28,0000 0000 0000 0000 000000
2013-11-29 00:11:16,0.15,4.27,0.00,23.85,24.95,28.38,5.81,30.13,999.13,2049.76,2207.01,2300.01,2457.28,350.39,317.83,26.28,0000 0000 0000 0000 000000
2013-11-29 00:12:16,0.08,4.27,0.00,23.86,24.95,28.34,5.82,30.33,999.22,2049.78,2206.85,2299.99,2457.11,349.90,317.41,26.29,0000 0000 0000 0000 000000
2013-11-29 00:13:16,0.13,4.27,0.00,23.88,24.95,28.38,5.77,30.17,999.21,2049.75,2206.39,2299.87,2457.04,349.69,317.10,26.30,0000 0000 0000 0000 000000
2013-11-29 00:14:17,0.16,4.27,0.00,23.90,24.95,28.38,5.76,30.08,999.19,2049.73,2206.15,2299.54,2457.00,350.42,317.54,26.30,0000 0000 0000 0000 000000
2013-11-29 00:15:17,0.17,4.27,0.00,23.84,24.95,28.37,5.89,30.13,999.23,2049.73,2206.05,2299.24,2456.94,350.56,318.04,26.31,0000 0000 0000 0000 000000
2013-11-29 00:16:17,0.15,4.27,0.00,23.82,24.95,28.37,5.92,30.13,999.25,2049.71,2205.98,2299.08,2456.61,350.47,317.98,26.31,0000 0000 0000 0000 000000
2013-11-29 00:17:18,0.13,4.28,0.00,23.78,24.95,28.36,6.00,30.17,999.28,2049.69,2205.67,2299.02,2456.28,350.10,317.69,26.32,0000 0000 0000 0000 000000
2013-11-29 00:18:18,0.12,4.28,0.00,23.76,24.95,28.40,5.80,30.17,999.27,2049.75,2205.27,2298.99,2456.11,350.59,317.96,26.32,0000 0000 0000 0000 000000
2013-11-29 00:19:18,0.26,4.28,0.00,23.81,24.95,28.42,5.90,30.00,999.29,2049.72,2205.09,2298.94,2456.04,350.27,317.83,26.33,0000 0000 0000 0000 000000
2013-11-29 00:20:18,0.01,4.28,0.00,23.79,24.94,28.35,5.95,30.13,999.27,2049.76,2205.03,2298.61,2456.00,350.16,317.92,26.34,0000 0000 0000 0000 000000
2013-11-29 00:21:19,0.18,4.28,0.00,23.77,24.94,28.37,5.91,30.13,999.33,2049.78,2204.96,2298.28,2455.98,350.10,317.72,26.34,0000 0000 0000 0000 000000
2013-11-29 00:22:19,0.16,4.28,0.00,23.75,24.94,28.33,5.82,30.29,999.43,2049.75,2204.58,2298.11,2455.75,350.23,317.89,26.35,0000 0000 0000 0000 000000
2013-11-29 00:23:19,0.19,4.28,0.00,23.80,24.94,28.35,5.74,30.29,999.48,2049.76,2204.22,2298.04,2455.33,349.95,317.61,26.35,0000 0000 0000 0000 000000
2013-11-29 00:24:20,0.23,4.28,0.00,23.77,24.93,28.35,5.75,30.08,999.46,2049.69,2204.08,2298.00,2455.12,349.50,317.33,26.36,0000 0000 0000 0000 000000
2013-11-29 00:25:20,0.02,4.28,0.00,23.73,24.93,28.35,5.89,30.17,999.44,2049.67,2204.00,2297.92,2455.04,350.23,317.79,26.37,0000 0000 0000 0000 000000
2013-11-29 00:26:20,0.04,4.28,0.00,23.73,24.92,28.36,5.85,30.25,999.41,2049.69,2203.83,2297.75,2455.01,350.99,318.26,26.37,0000 0000 0000 0000 000000
2013-11-29 00:27:20,0.13,4.28,0.00,23.73,24.92,28.35,5.90,30.04,999.36,2049.75,2203.38,2297.37,2454.99,351.12,318.82,26.38,0000 0000 0000 0000 000000
2013-11-29 00:28:21,0.36,4.29,0.00,23.77,24.92,28.37,5.78,30.25,999.42,2049.77,2203.14,2297.15,2454.65,350.19,317.51,26.38,0000 0000 0000 0000 000000
2013-11-29 00:29:21,0.20,4.29,0.00,23.74,24.92,28.37,5.85,30.29,999.39,2049.72,2203.05,2297.05,2454.25,349.69,317.20,26.39,0000 0000 0000 0000 000000
2013-11-29 00:30:21,0.09,4.29,0.00,23.72,24.92,28.36,5.77,30.13,999.31,2049.67,2202.98,2297.02,2454.10,349.83,317.53,26.39,0000 0000 0000 0000 000000
2013-11-29 00:31:21,0.01,4.29,0.00,23.76,24.92,28.37,5.85,30.13,999.35,2049.81,2202.75,2297.00,2454.03,349.80,317.46,26.40,0000 0000 0000 0000 000000
2013-11-29 00:32:21,0.20,4.29,0.00,23.82,24.92,28.33,5.82,30.33,999.39,2049.84,2202.33,2296.99,2454.00,349.71,317.07,26.41,0000 0000 0000 0000 000000
2013-11-29 00:33:22,0.17,4.29,0.00,23.81,24.92,28.35,6.02,30.21,999.42,2049.88,2202.12,2296.77,2453.93,351.04,318.65,26.41,0000 0000 0000 0000 000000
2013-11-29 00:34:22,0.18,4.29,0.00,23.78,24.92,28.36,5.92,30.33,999.47,2049.86,2202.02,2296.34,2453.72,350.39,318.02,26.42,0000 0000 0000 0000 000000
2013-11-29 00:35:22,0.20,4.29,0.00,23.81,24.92,28.38,5.83,30.25,999.43,2049.82,2201.93,2296.13,2453.35,349.41,317.10,26.42,0000 0000 0000 0000 000000
2013-11-29 00:36:23,0.17,4.29,0.00,23.80,24.92,28.38,5.82,30.21,999.41,2049.82,2201.55,2296.05,2453.13,349.90,317.54,26.43,0000 0000 0000 0000 000000
2013-11-29 00:37:23,0.17,4.29,0.00,23.80,24.92,28.36,5.97,30.13,999.42,2049.83,2201.20,2296.01,2453.04,350.33,317.93,26.44,0000 0000 0000 0000 000000
2013-11-29 00:38:23,0.13,4.29,0.00,23.80,24.92,28.36,5.89,30.21,999.44,2049.89,2201.07,2296.00,2453.01,350.07,317.69,26.44,0000 0000 0000 0000 000000
2013-11-29 00:39:23,0.09,4.30,0.00,23.79,24.92,28.34,5.83,30.29,999.42,2049.90,2201.02,2295.94,2452.95,349.77,317.44,26.45,0000 0000 0000 0000 000000
2013-11-29 00:40:24,0.10,4.30,0.00,23.78,24.92,28.38,5.77,29.92,999.40,2049.90,2200.89,2295.61,2452.69,349.14,316.81,26.45,0000 0000 0000 0000 000000
2013-11-29 00:41:24,0.24,4.30,0.00,23.75,24.92,28.40,5.81,30.25,999.42,2049.94,2200.45,2295.31,2452.33,349.38,316.78,26.46,0000 0000 0000 0000 000000
2013-11-29 00:42:24,0.30,4.30,0.00,23.76,24.92,28.33,5.84,30.17,999.38,2049.94,2200.16,2295.12,2452.13,349.58,317.28,26.47,0000 0000 0000 0000 000000
2013-11-29 00:43:25,0.16,4.30,0.00,23.73,24.92,28.32,5.95,30.25,999.47,2049.87,2200.05,2295.01,2452.04,350.56,318.40,26.47,0000 0000 0000 0000 000000
2013-11-29 00:44:25,0.01,4.30,0.00,23.72,24.91,28.37,5.76,30.42,999.44,2049.82,2199.97,2294.96,2452.00,350.43,318.10,26.48,0000 0000 0000 0000 000000
2013-11-29 00:45:25,0.01,4.30,0.00,23.72,24.91,28.36,5.83,30.21,999.45,2049.72,2199.59,2294.61,2451.83,350.68,318.25,26.48,0000 0000 0000 0000 000000
2013-11-29 00:46:25,0.19,4.30,0.00,23.74,24.91,28.34,5.88,30.08,999.40,2049.76,2199.23,2294.37,2451.43,350.40,318.46,26.49,0000 0000 0000 0000 000000
2013-11-29 00:47:26,0.32,4.30,0.00,23.73,24.91,28.33,5.81,30.13,999.34,2049.88,2199.08,2294.18,2451.17,349.77,317.47,26.49,0000 0000 0000 0000 000000
2013-11-29 00:48:26,0.26,4.30,0.00,23.73,24.90,28.36,5.85,30.29,999.33,2049.94,2199.03,2294.09,2451.08,350.24,317.96,26.50,0000 0000 0000 0000 000000
2013-11-29 00:49:26,0.10,4.31,0.00,23.72,24.90,28.37,5.87,30.21,999.28,2049.93,2198.94,2294.04,2451.03,349.95,317.54,26.51,0000 0000 0000 0000 000000
2013-11-29 00:50:26,0.08,4.31,0.00,23.75,24.90,28.37,5.80,30.29,999.22,2049.95,2198.54,2294.01,2451.01,349.39,317.08,26.51,0000 0000 0000 0000 000000
2013-11-29 00:51:27,0.11,4.31,0.00,23.74,24.90,28.36,5.82,30.13,999.19,2049.97,2198.23,2293.99,2450.98,349.71,316.82,26.52,0000 0000 0000 0000 000000
2013-11-29 00:52:27,0.10,4.31,0.00,23.79,24.90,28.33,5.87,30.21,999.24,2049.93,2198.08,2293.87,2450.61,349.05,316.72,26.52,0000 0000 0000 0000 000000
2013-11-29 00:53:27,0.12,4.31,0.00,23.81,24.90,28.36,5.84,30.08,999.24,2049.92,2198.01,2293.51,2450.26,349.63,317.21,26.53,0000 0000 0000 0000 000000
2013-11-29 00:54:28,0.22,4.31,0.00,23.84,24.90,28.35,5.86,30.33,999.26,2049.88,2197.70,2293.19,2450.10,350.52,318.31,26.54,0000 0000 0000 0000 000000
2013-11-29 00:55:28,0.19,4.31,0.00,23.89,24.90,28.38,5.82,30.17,999.22,2049.84,2197.28,2293.07,2450.03,349.82,317.31,26.54,0000 0000 0000 0000 000000
2013-11-29 00:56:29,0.14,4.31,0.00,23.83,24.90,28.38,5.81,30.33,999.24,2049.85,2197.11,2293.02,2450.01,349.80,317.36,26.55,0000 0000 0000 0000 000000
2013-11-29 00:57:29,0.10,4.31,0.00,23.77,24.90,28.35,5.97,30.38,999.17,2049.93,2197.04,2292.99,2449.95,350.14,317.44,26.55,0000 0000 0000 0000 000000
2013-11-29 00:58:29,0.10,4.31,0.00,23.72,24.90,28.33,5.92,30.38,999.16,2049.96,2196.98,2292.97,2449.76,350.11,317.73,26.56,0000 0000 0000 0000 000000
2013-11-29 00:59:29,0.10,4.31,0.00,23.75,24.90,28.36,5.80,30.25,999.10,2049.96,2196.86,2292.82,2449.35,350.11,317.66,26.56,0000 0000 0000 0000 000000
2013-11-29 01:00:30,0.19,4.31,0.00,23.72,24.90,28.35,5.71,30.33,999.19,2049.93,2196.47,2292.44,2449.14,350.20,317.67,26.57,0000 0000 0000 0000 000000
2013-11-29 01:01:30,0.25,4.32,0.00,23.74,24.90,28.32,5.92,30.13,999.16,2049.91,2196.18,2292.16,2449.05,349.93,317.81,26.58,0000 0000 0000 0000 000000
2013-11-29 01:02:30,0.16,4.32,0.00,23.72,24.90,28.33,5.77,30.04,999.16,2049.91,2196.07,2292.05,2449.01,349.29,316.98,26.58,0000 0000 0000 0000 000000
2013-11-29 01:03:31,0.08,4.32,0.00,23.71,24.90,28.30,5.86,30.17,999.27,2049.94,2196.01,2292.02,2448.96,350.23,317.50,26.59,0000 0000 0000 0000 000000
2013-11-29 01:04:31,0.07,4.32,0.00,23.72,24.90,28.32,5.89,30.33,999.30,2049.97,2195.73,2291.99,2448.78,350.22,317.46,26.59,0000 0000 0000 0000 000000
2013-11-29 01:05:31,0.14,4.32,0.00,23.69,24.90,28.31,5.83,30.21,999.35,2049.96,2195.32,2291.90,2448.37,349.71,317.71,26.60,0000 0000 0000 0000 000000
2013-11-29 01:06:32,0.23,4.32,0.00,23.71,24.89,28.31,5.86,30.25,999.42,2049.94,2195.12,2291.47,2448.15,349.84,317.57,26.61,0000 0000 0000 0000 000000
2013-11-29 01:07:32,0.22,4.32,0.00,23.71,24.89,28.32,5.76,30.38,999.47,2049.93,2195.04,2291.25,2448.05,349.01,317.42,26.61,0000 0000 0000 0000 000000
2013-11-29 01:08:32,0.12,4.32,0.00,23.69,24.88,28.34,5.80,30.25,999.44,2049.94,2194.96,2291.12,2448.01,349.91,317.67,26.62,0000 0000 0000 0000 000000
2013-11-29 01:09:32,0.09,4.32,0.00,23.72,24.88,28.33,5.87,30.25,999.42,2049.96,2194.59,2291.04,2447.96,349.69,317.44,26.62,0000 0000 0000 0000 000000
2013-11-29 01:10:33,0.16,4.32,0.00,23.70,24.87,28.31,5.93,30.38,999.41,2049.96,2194.24,2291.00,2447.60,350.29,317.99,26.63,0000 0000 0000 0000 000000
2013-11-29 01:11:33,0.17,4.32,0.00,23.73,24.87,28.34,5.88,30.33,999.42,2049.97,2194.08,2290.97,2447.25,350.16,317.85,26.64,0000 0000 0000 0000 000000
2013-11-29 01:12:33,0.15,4.33,0.00,23.72,24.87,28.32,5.95,30.29,999.44,2049.96,2194.02,2290.80,2447.11,349.94,317.66,26.64,0000 0000 0000 0000 000000
2013-11-29 01:13:34,0.11,4.33,0.00,23.79,24.87,28.34,5.92,30.29,999.43,2049.95,2193.93,2290.42,2447.04,348.91,317.05,26.65,0000 0000 0000 0000 000000
2013-11-29 01:14:34,0.18,4.33,0.00,23.79,24.87,28.34,5.81,30.25,999.36,2049.97,2193.53,2290.17,2447.00,350.19,317.80,26.65,0000 0000 0000 0000 000000
2013-11-29 01:15:34,0.20,4.33,0.00,23.81,24.87,28.30,6.02,30.33,999.30,2049.97,2193.21,2290.06,2446.94,350.78,318.28,26.66,0000 0000 0000 0000 000000
2013-11-29 01:16:34,0.14,4.33,0.00,23.79,24.87,28.32,5.71,30.25,999.28,2049.97,2193.07,2290.01,2446.65,349.82,317.44,26.66,0000 0000 0000 0000 000000
2013-11-29 01:17:35,0.12,4.33,0.00,23.76,24.87,28.29,5.87,30.25,999.24,2049.99,2193.02,2290.00,2446.30,350.05,317.38,26.67,0000 0000 0000 0000 000000
2013-11-29 01:18:35,0.09,4.33,0.00,23.68,24.87,28.31,5.96,30.33,999.30,2049.98,2192.83,2289.94,2446.12,349.79,317.52,26.68,0000 0000 0000 0000 000000
2013-11-29 01:19:35,0.16,4.33,0.00,23.71,24.87,28.27,5.89,30.17,999.35,2049.97,2192.35,2289.55,2446.04,349.89,317.79,26.68,0000 0000 0000 0000 000000
2013-11-29 01:20:35,0.27,4.33,0.00,23.69,24.87,28.27,5.94,30.17,999.41,2049.97,2192.12,2289.22,2446.01,350.23,318.02,26.69,0000 0000 0000 0000 000000
2013-11-29 01:21:36,0.17,4.33,0.00,23.66,24.87,28.30,5.74,30.08,999.37,2049.95,2192.04,2289.09,2445.95,349.27,317.32,26.69,0000 0000 0000 0000 000000
2013-11-29 01:22:36,0.07,4.33,0.00,23.66,24.87,28.30,5.93,30.21,999.36,2049.96,2191.99,2289.03,2445.76,350.48,318.69,26.70,0000 0000 0000 0000 000000
2013-11-29 01:23:36,0.11,4.34,0.00,23.66,24.87,28.29,5.98,30.38,999.38,2049.97,2191.62,2288.99,2445.38,350.30,318.03,26.71,0000 0000 0000 0000 000000
2013-11-29 01:24:37,0.18,4.34,0.00,23.65,24.87,28.32,5.83,30.08,999.41,2049.99,2191.25,2288.97,2445.14,350.50,318.11,26.71,0000 0000 0000 0000 000000
2013-11-29 01:25:37,0.16,4.34,0.00,23.66,24.87,28.29,5.78,30.33,999.46,2049.97,2191.09,2288.82,2445.04,349.97,317.77,26.72,0000 0000 0000 0000 000000
2013-11-29 01:26:37,0.13,4.34,0.00,23.67,24.87,28.27,5.82,30.29,999.43,2049.97,2191.01,2288.43,2445.00,350.39,318.26,26.72,0000 0000 0000 0000 000000
2013-11-29 01:27:37,0.16,4.34,0.00,23.68,24.86,28.30,5.85,30.33,999.45,2049.97,2190.82,2288.17,2444.94,350.49,318.21,26.73,0000 0000 0000 0000 000000
2013-11-29 01:28:38,0.18,4.34,0.00,23.61,24.86,28.32,5.96,30.08,999.44,2049.99,2190.38,2288.06,2444.70,351.17,318.90,26.74,0000 0000 0000 0000 000000
2013-11-29 01:29:38,0.20,4.34,0.00,23.61,24.85,28.29,5.85,30.38,999.43,2049.98,2190.15,2288.02,2444.32,349.63,317.51,26.74,0000 0000 0000 0000 000000
2013-11-29 01:30:38,0.14,4.34,0.00,23.62,24.85,28.28,5.73,30.13,999.45,2049.99,2190.04,2288.00,2444.11,349.70,317.56,26.75,0000 0000 0000 0000 000000
2013-11-29 01:31:38,0.07,4.34,0.00,23.64,24.85,28.29,5.96,29.96,999.49,2049.99,2189.97,2287.97,2444.04,351.15,318.87,26.75,0000 0000 0000 0000 000000
2013-11-29 01:32:39,0.04,4.34,0.00,23.68,24.85,28.30,5.71,30.29,999.49,2049.98,2189.84,2287.86,2444.01,348.95,317.12,26.76,0000 0000 0000 0000 000000
2013-11-29 01:33:39,0.13,4.34,0.00,23.66,24.85,28.26,5.73,30.04,999.51,2049.98,2189.38,2287.43,2443.96,349.03,316.93,26.76,0000 0000 0000 0000 000000
2013-11-29 01:34:39,0.25,4.34,0.00,23.68,24.85,28.25,5.89,30.38,999.51,2049.98,2189.14,2287.17,2443.63,350.02,317.80,26.77,0000 0000 0000 0000 000000
2013-11-29 01:35:39,0.23,4.35,0.00,23.71,24.85,28.30,5.84,30.33,999.51,2049.99,2189.05,2287.06,2443.26,349.79,317.57,26.78,0000 0000 0000 0000 000000
2013-11-29 01:36:40,0.14,4.35,0.00,23.72,24.85,28.29,5.95,30.13,999.52,2049.98,2188.90,2287.00,2443.11,349.43,317.23,26.78,0000 0000 0000 0000 000000
2013-11-29 01:37:40,0.11,4.35,0.00,23.71,24.85,28.27,5.78,30.25,999.53,2049.97,2188.42,2286.97,2443.04,349.08,316.74,26.79,0000 0000 0000 0000 000000
2013-11-29 01:38:40,0.13,4.35,0.00,23.69,24.85,28.26,5.69,30.13,999.53,2049.98,2188.16,2286.81,2443.01,349.67,317.48,26.79,0000 0000 0000 0000 000000
2013-11-29 01:39:41,0.16,4.35,0.00,23.66,24.85,28.28,5.70,30.29,999.51,2049.99,2188.06,2286.38,2442.93,349.39,316.99,26.80,0000 0000 0000 0000 000000
2013-11-29 01:40:41,0.18,4.35,0.00,23.66,24.85,28.29,5.74,29.83,999.51,2049.99,2188.01,2286.18,2442.70,350.26,318.04,26.81,0000 0000 0000 0000 000000
2013-11-29 01:41:41,0.16,4.35,0.00,23.64,24.84,28.26,5.81,30.21,999.51,2049.99,2187.72,2286.07,2442.30,349.44,317.32,26.81,0000 0000 0000 0000 000000
2013-11-29 01:42:42,0.18,4.35,0.00,23.62,24.84,28.27,5.78,30.00,999.50,2049.99,2187.31,2286.02,2442.13,349.82,317.68,26.82,0000 0000 0000 0000 000000
2013-11-29 01:43:42,0.15,4.35,0.00,23.62,24.84,28.26,5.85,30.17,999.52,2049.96,2187.11,2285.95,2442.05,349.33,317.29,26.82,0000 0000 0000 0000 000000
2013-11-29 01:44:42,0.10,4.35,0.00,23.66,24.83,28.24,5.92,30.29,999.49,2049.95,2187.04,2285.54,2442.01,349.79,317.61,26.83,0000 0000 0000 0000 000000
2013-11-29 01:45:42,0.16,4.35,0.00,23.64,24.83,28.27,5.96,30.38,999.49,2049.98,2186.80,2285.24,2441.77,351.02,318.74,26.83,0000 0000 0000 0000 000000
2013-11-29 01:46:43,0.26,4.36,0.00,23.60,24.82,28.24,5.95,30.42,999.50,2049.98,2186.36,2285.08,2441.39,350.45,318.28,26.84,0000 0000 0000 0000 000000
2013-11-29 01:47:43,0.23,4.36,0.00,23.58,24.82,28.27,5.79,30.29,999.49,2049.98,2186.13,2285.03,2441.16,349.42,317.35,26.85,0000 0000 0000 0000 000000
2013-11-29 01:48:43,0.11,4.36,0.00,23.63,24.82,28.26,5.88,30.25,999.52,2049.99,2186.04,2285.01,2441.06,350.43,318.24,26.85,0000 0000 0000 0000 000000
2013-11-29 01:49:43,0.05,4.36,0.00,23.64,24.82,28.29,5.83,30.17,999.50,2049.99,2185.97,2284.99,2441.02,350.09,317.91,26.86,0000 0000 0000 0000 000000
2013-11-29 01:50:44,0.05,4.36,0.00,23.63,24.82,28.24,5.83,30.42,999.46,2049.98,2185.57,2284.90,2441.00,350.69,318.64,26.86,0000 0000 0000 0000 000000
2013-11-29 01:51:44,0.11,4.36,0.00,23.66,24.82,28.24,5.83,30.13,999.48,2049.98,2185.25,2284.68,2440.96,350.44,317.87,26.87,0000 0000 0000 0000 000000
2013-11-29 01:52:44,0.21,4.36,0.00,23.67,24.82,28.27,5.99,30.13,999.45,2049.99,2185.09,2284.30,2440.62,350.10,317.87,26.88,0000 0000 0000 0000 000000
2013-11-29 01:53:45,0.24,4.36,0.00,23.65,24.82,28.25,5.76,30.04,999.50,2049.99,2185.03,2284.11,2440.24,349.21,317.76,26.88,0000 0000 0000 0000 000000
2013-11-29 01:54:45,0.15,4.36,0.00,23.69,24.82,28.22,5.91,30.33,999.51,2049.99,2184.98,2284.04,2440.09,351.20,319.16,26.89,0000 0000 0000 0000 000000
2013-11-29 01:55:45,0.07,4.36,0.00,23.70,24.82,28.20,5.88,30.08,999.53,2049.99,2184.66,2284.01,2440.03,350.45,318.18,26.89,0000 0000 0000 0000 000000
2013-11-29 01:56:45,0.11,4.37,0.00,23.70,24.82,28.19,5.88,30.21,999.53,2049.99,2184.29,2284.00,2440.00,350.36,318.28,26.90,0000 0000 0000 0000 000000
2013-11-29 01:57:45,0.10,4.37,0.00,23.64,24.82,28.20,5.92,30.00,999.53,2049.99,2184.11,2283.95,2439.95,350.31,318.10,26.90,0000 0000 0000 0000 000000
2013-11-29 01:58:46,0.09,4.37,0.00,23.62,24.82,28.21,5.88,30.29,999.53,2049.99,2184.03,2283.66,2439.63,350.59,318.38,26.91,0000 0000 0000 0000 000000
2013-11-29 01:59:46,0.21,4.37,0.00,23.59,24.82,28.21,5.84,30.25,999.53,2049.98,2183.93,2283.28,2439.26,350.11,318.24,26.92,0000 0000 0000 0000 000000
2013-11-29 02:00:46,0.23,4.37,0.00,23.57,24.81,28.23,5.86,30.38,999.52,2049.99,2183.56,2283.13,2439.09,350.46,318.32,26.92,0000 0000 0000 0000 000000
2013-11-29 02:01:46,0.19,4.37,0.00,23.61,24.81,28.23,5.83,30.21,999.53,2049.99,2183.24,2283.05,2439.03,350.24,318.08,26.93,0000 0000 0000 0000 000000
2013-11-29 02:02:47,0.12,4.37,0.00,23.61,24.80,28.23,5.76,30.21,999.53,2049.99,2183.08,2283.01,2439.00,349.86,317.67,26.93,0000 0000 0000 0000 000000
2013-11-29 02:03:47,0.05,4.37,0.00,23.65,24.80,28.25,5.78,30.21,999.53,2049.98,2183.01,2282.99,2438.98,350.03,317.82,26.94,0000 0000 0000 0000 000000
2013-11-29 02:04:47,0.03,4.37,0.00,23.63,24.80,28.23,5.88,30.17,999.53,2049.99,2182.94,2282.85,2438.74,349.95,317.80,26.95,0000 0000 0000 0000 000000
2013-11-29 02:05:48,0.17,4.37,0.00,23.61,24.80,28.22,5.83,30.21,999.52,2049.99,2182.51,2282.46,2438.32,350.60,318.42,26.95,0000 0000 0000 0000 000000
2013-11-29 02:06:48,0.32,4.37,0.00,23.61,24.80,28.22,6.05,30.21,999.52,2049.99,2182.18,2282.18,2438.12,350.75,318.54,26.96,0000 0000 0000 0000 000000
2013-11-29 02:07:48,0.22,4.38,0.00,23.57,24.80,28.23,5.94,30.25,999.51,2049.99,2182.07,2282.07,2438.04,350.76,318.59,26.96,0000 0000 0000 0000 000000
2013-11-29 02:08:49,0.09,4.38,0.00,23.58,24.80,28.22,5.97,30.21,999.52,2049.99,2182.01,2282.02,2438.00,350.52,318.37,26.97,0000 0000 0000 0000 000000
2013-11-29 02:09:49,0.03,4.38,0.00,23.58,24.80,28.24,5.78,30.29,999.50,2049.99,2181.74,2281.98,2437.87,349.86,317.70,26.98,0000 0000 0000 0000 000000
2013-11-29 02:10:49,0.16,4.38,0.00,23.61,24.80,28.22,5.83,30.42,999.51,2049.99,2181.33,2281.82,2437.50,349.85,317.72,26.98,0000 0000 0000 0000 000000
2013-11-29 02:11:49,0.25,4.38,0.00,23.59,24.80,28.23,5.84,30.46,999.51,2049.99,2181.11,2281.48,2437.22,350.78,318.58,26.99,0000 0000 0000 0000 000000
2013-11-29 02:12:50,0.23,4.38,0.00,23.59,24.80,28.22,5.93,30.25,999.52,2049.99,2181.04,2281.19,2437.08,349.78,317.39,26.99,0000 0000 0000 0000 000000
2013-11-29 02:13:50,0.14,4.38,0.00,23.63,24.80,28.22,5.97,30.29,999.51,2049.99,2180.91,2281.07,2437.03,349.79,317.45,27.00,0000 0000 0000 0000 000000
2013-11-29 02:14:50,0.10,4.38,0.00,23.63,24.79,28.23,5.75,30.04,999.51,2049.99,2180.55,2281.02,2437.01,349.44,317.33,27.00,0000 0000 0000 0000 000000
2013-11-29 02:15:51,0.12,4.38,0.00,23.67,24.79,28.23,5.74,30.08,999.51,2049.99,2180.21,2281.00,2436.80,349.61,317.44,27.01,0000 0000 0000 0000 000000
2013-11-29 02:16:51,0.14,4.38,0.00,23.62,24.79,28.20,5.88,30.08,999.49,2049.99,2180.07,2280.96,2436.41,349.76,317.62,27.02,0000 0000 0000 0000 000000
2013-11-29 02:17:51,0.13,4.38,0.00,23.56,24.79,28.18,5.80,30.25,999.50,2049.99,2180.01,2280.70,2436.16,350.23,318.11,27.02,0000 0000 0000 0000 000000
2013-11-29 02:18:51,0.19,4.39,0.00,23.57,24.78,28.22,5.80,30.29,999.47,2049.99,2179.70,2280.30,2436.05,349.74,317.77,27.03,0000 0000 0000 0000 000000
2013-11-29 02:19:52,0.25,4.39,0.00,23.55,24.78,28.22,5.98,30.46,999.47,2049.99,2179.27,2280.11,2436.01,351.18,318.45,27.03,0000 0000 0000 0000 000000
2013-11-29 02:20:52,0.18,4.39,0.00,23.54,24.77,28.22,5.89,30.38,999.43,2049.99,2179.09,2280.04,2435.98,350.73,318.57,27.04,0000 0000 0000 0000 000000
2013-11-29 02:21:52,0.08,4.39,0.00,23.56,24.77,28.22,5.91,30.29,999.38,2049.99,2179.02,2280.01,2435.78,350.11,317.97,27.05,0000 0000 0000 0000 000000
2013-11-29 02:22:53,0.08,4.39,0.00,23.58,24.77,28.20,5.85,30.38,999.38,2049.99,2178.86,2279.98,2435.36,350.89,318.61,27.05,0000 0000 0000 0000 000000
2013-11-29 02:23:53,0.17,4.39,0.00,23.52,24.77,28.21,5.90,30.08,999.40,2049.99,2178.37,2279.83,2435.14,349.87,317.80,27.06,0000 0000 0000 0000 000000
2013-11-29 02:24:53,0.22,4.39,0.00,23.50,24.77,28.19,5.85,30.17,999.28,2049.99,2178.15,2279.44,2435.05,350.62,318.47,27.06,0000 0000 0000 0000 000000
2013-11-29 02:25:53,0.21,4.39,0.00,23.56,24.77,28.21,5.81,30.29,999.26,2049.99,2178.05,2279.18,2435.00,349.71,317.57,27.07,0000 0000 0000 0000 000000
2013-11-29 02:26:54,0.11,4.39,0.00,23.56,24.77,28.23,5.79,30.29,999.23,2049.99,2177.94,2279.07,2434.96,349.71,317.56,27.08,0000 0000 0000 0000 000000
2013-11-29 02:27:54,0.07,4.39,0.00,23.55,24.77,28.19,5.77,30.17,999.23,2049.98,2177.54,2279.02,2434.70,349.74,317.60,27.08,0000 0000 0000 0000 000000
2013-11-29 02:28:54,0.20,4.39,0.00,23.51,24.77,28.19,5.87,30.04,999.33,2049.99,2177.23,2278.99,2434.30,350.42,318.28,27.09,0000 0000 0000 0000 000000
2013-11-29 02:29:55,0.18,4.40,0.00,23.51,24.77,28.21,5.82,30.29,999.33,2049.99,2177.09,2278.81,2434.11,349.65,317.44,27.09,0000 0000 0000 0000 000000
2013-11-29 02:30:55,0.15,4.40,0.00,23.59,24.77,28.20,5.96,30.33,999.33,2049.99,2177.03,2278.41,2434.04,349.63,317.26,27.10,0000 0000 0000 0000 000000
2013-11-29 02:31:55,0.17,4.40,0.00,23.58,24.77,28.19,5.88,30.25,999.38,2049.99,2176.89,2278.15,2434.01,350.40,318.41,27.10,0000 0000 0000 0000 000000
2013-11-29 02:32:55,0.15,4.40,0.00,23.58,24.77,28.19,5.82,30.42,999.41,2049.99,2176.50,2278.05,2433.99,350.24,318.07,27.11,0000 0000 0000 0000 000000
2013-11-29 02:33:56,0.15,4.40,0.00,23.59,24.76,28.16,5.62,30.25,999.41,2049.99,2176.18,2278.02,2433.67,348.74,317.27,27.12,0000 0000 0000 0000 000000
2013-11-29 02:34:56,0.17,4.40,0.00,23.63,24.76,28.18,5.83,30.33,999.44,2049.99,2176.06,2278.00,2433.31,350.26,317.84,27.12,0000 0000 0000 0000 000000
2013-11-29 02:35:56,0.10,4.40,0.00,23.66,24.75,28.21,5.87,30.33,999.45,2049.99,2176.00,2277.97,2433.13,350.69,318.20,27.13,0000 0000 0000 0000 000000
2013-11-29 02:36:57,0.07,4.40,0.00,23.61,24.75,28.20,5.87,30.25,999.36,2049.99,2175.86,2277.80,2433.06,350.98,318.76,27.13,0000 0000 0000 0000 000000